Terminal Aerodrome Forecast
Issued by NWS

Home | Current Version | Previous Version | Text Only | Print | Product List | Glossary On
Versions: 1 2 3 4 5 6 7 8 9 10 11 12 13 14 15
000
FTUS45 KABQ 032300
TAFAEG
TAF
KAEG 032336Z 0400/0424 26014KT P6SM SCT060
     FM040200 30008KT P6SM BKN060
     FM041200 31007KT P6SM SCT030 SCT070
     FM041700 32015G22KT P6SM FEW030 SCT070=

USA.gov is the U.S. government's official web portal to all federal, state and local government web resources and services.